Flag for Kazakhstan Weather past 2 weeks in Astana, Kazakhstan

Now
77 °F

Passing clouds.


Feels Like: 78 °F
Forecast: 53 / 74 °F
Wind: 6 mph from Northwest

Location: Astana

Current Time: Aug 5, 2015 at 10:52:37 AM

Latest Report: Aug 5, 2015 at 10:00 AM


Visibility: N/A

Pressure: 29.71 "Hg

Humidity: 30%

Dew point: 43 °F

Location of AstanaLocation

Historic Weather in Astana — Graph

°F

Astana temperature yesterday

Maximum temperature yesterday: 82 °F (at 4:00 PM)
Minimum temperature yesterday: 61 °F (at 6:00 AM)
Average temperature yesterday: 72 °F

Past Weeks' High & Low Weather Summary

 TemperatureHumidityPressure
High93 °F (Aug 1, 3:00 PM)94% (Jul 30, 3:30 AM)30.04 "Hg (Jul 30, 3:30 AM)
Low48 °F (Jul 28, 4:30 AM)15% (Aug 1, 4:00 PM)29.50 "Hg (Jul 26, 9:00 PM)
Average70 °F55%29.81 "Hg
* Reported Jul 21 9:00 AM — Aug 5 9:00 AM, Astana, Weather by CustomWeather, © 2015

Note: Actual official high and low records may vary slightly from our data, if they occured in-between our weather recording intervals... More about our weather records

Advertising

Astana weather history for previous 24 hours

 ConditionsComfort  
Time TempWeatherWind HumidityBarometerVisibility
9:00 AM
Wed, Aug 5
72 °FPassing clouds.3 mph44%29.71 "HgN/A
8:30 AM66 °FSunny.1 mph60%29.71 "Hg10 mi
8:00 AM64 °FSunny.1 mph64%29.71 "Hg10 mi
7:30 AM63 °FSunny.No wind68%29.71 "Hg10 mi
7:00 AM59 °FSunny.No wind77%29.71 "Hg10 mi
6:30 AM54 °FClear.1 mph77%29.71 "Hg10 mi
6:00 AM54 °FPassing clouds.3 mph77%29.71 "HgN/A
5:30 AM54 °FClear.3 mph77%29.74 "Hg10 mi
5:00 AM57 °FClear.3 mph72%29.74 "Hg10 mi
4:30 AM57 °FClear.6 mph67%29.74 "Hg10 mi
4:00 AM57 °FClear.6 mph67%29.74 "Hg10 mi
3:30 AM57 °FClear.6 mph63%29.74 "Hg10 mi
3:00 AM63 °FClear.1 mph52%29.77 "Hg10 mi
2:30 AM61 °FClear.No wind59%29.77 "Hg10 mi
2:00 AM61 °FClear.No wind59%29.77 "Hg10 mi
1:30 AM63 °FClear.No wind56%29.77 "Hg10 mi
1:00 AM61 °FClear.1 mph55%29.77 "Hg10 mi
12:30 AM63 °FPassing clouds.3 mph52%29.77 "HgN/A
12:00 AM66 °FClear.8 mph43%29.77 "Hg10 mi
11:30 PM
Tue, Aug 4
68 °FClear.3 mph40%29.77 "Hg10 mi
11:00 PM66 °FClear.3 mph43%29.80 "Hg10 mi
10:30 PM70 °FClear.6 mph35%29.80 "Hg10 mi
10:00 PM70 °FPassing clouds.3 mph35%29.80 "HgN/A
9:30 PM70 °FSunny.6 mph40%29.80 "Hg10 mi
9:00 PM73 °FPassing clouds.6 mph33%29.77 "HgN/A
8:30 PM75 °FPassing clouds.3 mph29%29.77 "HgN/A
8:00 PM79 °FPassing clouds.3 mph26%29.77 "HgN/A
7:30 PM81 °FPassing clouds.3 mph23%29.77 "HgN/A
7:00 PM81 °FPassing clouds.6 mph21%29.80 "HgN/A
6:30 PM82 °FPassing clouds.3 mph19%29.80 "HgN/A
6:00 PM81 °FSunny.1 mph21%29.80 "Hg10 mi
5:30 PM82 °FPassing clouds.3 mph21%29.80 "HgN/A
5:00 PM81 °FPassing clouds.6 mph23%29.80 "HgN/A
4:30 PM82 °FPassing clouds.6 mph21%29.83 "HgN/A
4:00 PM82 °FPassing clouds.6 mph19%29.83 "HgN/A
3:30 PM81 °FSunny.6 mph21%29.83 "Hg10 mi
3:00 PM81 °FSunny.3 mph23%29.86 "Hg10 mi
2:30 PM81 °FPassing clouds.8 mph23%29.86 "HgN/A
2:00 PM79 °FPassing clouds.6 mph26%29.86 "HgN/A
1:30 PM79 °FPassing clouds.8 mph30%29.86 "HgN/A
1:00 PM79 °FPassing clouds.8 mph30%29.89 "HgN/A
12:30 PM77 °FPassing clouds.10 mph34%29.89 "HgN/A
12:00 PM77 °FPassing clouds.6 mph36%29.89 "HgN/A
11:30 AM75 °FPassing clouds.10 mph36%29.89 "HgN/A
11:00 AM73 °FPassing clouds.10 mph41%29.89 "HgN/A
10:30 AM73 °FSunny.10 mph41%29.89 "Hg10 mi
10:00 AM72 °FSunny.13 mph44%29.92 "Hg10 mi
Weather by CustomWeather, © 2015

See weather overviewHow to use our weather pages